CW9825 Weather Reports


Display with metric or nautical units.
time (UTC)temp
F
wind
direction
speed
MPH
gust
MPH
rain 1hr
in
rain 24hr
in
rain mn
in
humidity
%
barometer
mb
20260504035541 63 188 14.0 23.0 0.00 0.00 0.00 41 994.1
20260504035040 63 204 9.0 23.0 0.00 0.00 0.00 41 994.2
20260504034548 63 224 10.0 21.0 0.00 0.00 0.00 41 994.3
20260504034040 64 215 10.0 18.0 0.00 0.00 0.00 40 994.6
20260504033638 64 195 9.0 15.0 0.00 0.00 0.00 40 994.6
20260504033036 64 190 9.0 20.0 0.00 0.00 0.00 40 994.7
20260504032536 64 232 10.0 20.0 0.00 0.00 0.00 40 994.9
20260504032038 64 205 10.0 18.0 0.00 0.00 0.00 40 995.0
20260504031545 64 210 11.0 18.0 0.00 0.00 0.00 40 995.1
20260504031033 64 217 9.0 20.0 0.00 0.00 0.00 40 995.2
20260504030532 64 194 8.0 16.0 0.00 0.00 0.00 40 995.3
20260504030039 64 193 10.0 20.0 0.00 0.00 0.00 40 995.4
20260504025535 64 194 9.0 20.0 0.00 0.00 0.00 40 995.5
20260504025032 64 184 10.0 22.0 0.00 0.00 0.00 40 995.6
20260504024530 64 219 10.0 22.0 0.00 0.00 0.00 39 995.6
20260504024031 65 213 9.0 20.0 0.00 0.00 0.00 39 995.7
20260504023529 65 198 10.0 19.0 0.00 0.00 0.00 39 995.9
20260504023028 65 198 10.0 16.0 0.00 0.00 0.00 38 995.9
20260504022529 65 169 9.0 18.0 0.00 0.00 0.00 38 996.0
20260504022027 65 198 7.0 19.0 0.00 0.00 0.00 38 996.0
20260504021526 66 194 10.0 18.0 0.00 0.00 0.00 37 996.1
20260504021025 66 209 10.0 16.0 0.00 0.00 0.00 37 996.2
20260504020525 66 202 10.0 20.0 0.00 0.00 0.00 36 996.2
20260504020028 67 192 12.0 20.0 0.00 0.00 0.00 36 996.3
20260504015525 67 176 10.0 18.0 0.00 0.00 0.00 35 996.4
20260504015024 67 200 10.0 18.0 0.00 0.00 0.00 35 996.5
20260504014524 67 213 8.0 16.0 0.00 0.00 0.00 34 996.6
20260504014022 68 200 8.0 15.0 0.00 0.00 0.00 34 996.8
20260504013521 68 213 10.0 15.0 0.00 0.00 0.00 34 996.9
20260504013020 68 213 8.0 16.0 0.00 0.00 0.00 33 997.0
20260504012522 69 208 9.0 16.0 0.00 0.00 0.00 33 997.2
20260504012019 69 154 8.0 12.0 0.00 0.00 0.00 33 997.3
20260504011518 69 242 7.0 16.0 0.00 0.00 0.00 32 997.4
20260504011016 70 225 6.0 16.0 0.00 0.00 0.00 32 997.5
20260504010516 70 188 6.0 12.0 0.00 0.00 0.00 32 997.5
20260504010015 70 144 5.0 14.0 0.00 0.00 0.00 31 997.8
20260504005514 70 190 4.0 14.0 0.00 0.00 0.00 31 997.9
20260504005014 71 182 5.0 10.0 0.00 0.00 0.00 30 998.0
20260504004514 71 238 3.0 10.0 0.00 0.00 0.00 30 998.1
20260504004015 71 237 1.0 14.0 0.00 0.00 0.00 30 998.2
20260504003511 71 137 4.0 14.0 0.00 0.00 0.00 30 998.4
20260504003011 71 168 3.0 11.0 0.00 0.00 0.00 29 998.5
20260504002509 71 225 4.0 11.0 0.00 0.00 0.00 29 998.6
20260504002009 71 227 6.0 12.0 0.00 0.00 0.00 29 998.7
20260504001510 72 271 3.0 16.0 0.00 0.00 0.00 29 998.8
20260504001007 72 228 8.0 16.0 0.00 0.00 0.00 29 998.8
20260504000510 72 259 5.0 11.0 0.00 0.00 0.00 29 999.0
20260504000007 72 63 3.0 15.0 0.00 0.00 0.00 29 999.0
20260503235505 72 279 6.0 14.0 0.00 0.00 0.00 29 999.2
20260503235005 72 260 5.0 14.0 0.00 0.00 0.00 29 999.3
20260503234508 72 167 5.0 14.0 0.00 0.00 0.00 29 999.3
20260503234004 72 242 7.0 14.0 0.00 0.00 0.00 29 999.5
20260503233503 72 243 7.0 14.0 0.00 0.00 0.00 29 999.6
20260503233002 72 214 5.0 20.0 0.00 0.00 0.00 29 999.7
20260503232501 72 279 8.0 20.0 0.00 0.00 0.00 29 999.7
20260503232101 72 202 8.0 19.0 0.00 0.00 0.00 29 999.8
20260503231600 72 225 7.0 16.0 0.00 0.00 0.00 29 999.9
20260503231100 72 302 6.0 18.0 0.00 0.00 0.00 29 999.9
20260503230559 72 257 8.0 17.0 0.00 0.00 0.00 29 1000.1
20260503225557 73 262 7.0 21.0 0.00 0.00 0.00 29 1000.3
20260503225059 73 328 9.0 21.0 0.00 0.00 0.00 28 1000.4
20260503224556 73 248 6.0 19.0 0.00 0.00 0.00 29 1000.5
20260503224055 73 296 7.0 18.0 0.00 0.00 0.00 28 1000.4
20260503223555 73 289 7.0 17.0 0.00 0.00 0.00 29 1000.5
20260503223054 73 237 6.0 17.0 0.00 0.00 0.00 28 1000.6
20260503222552 73 297 9.0 19.0 0.00 0.00 0.00 28 1000.6
20260503222051 72 283 9.0 25.0 0.00 0.00 0.00 29 1000.6
20260503221551 72 258 7.0 25.0 0.00 0.00 0.00 29 1000.8
20260503221050 72 273 4.0 16.0 0.00 0.00 0.00 30 1000.9
20260503220549 72 208 6.0 16.0 0.00 0.00 0.00 30 1001.2
20260503220048 72 259 6.0 19.0 0.00 0.00 0.00 30 1001.2
20260503215547 72 59 6.0 19.0 0.00 0.00 0.00 30 1001.4
20260503215048 72 245 6.0 19.0 0.00 0.00 0.00 30 1001.6
20260503214554 72 196 7.0 19.0 0.00 0.00 0.00 30 1001.6
20260503214048 72 282 7.0 19.0 0.00 0.00 0.00 30 1001.7
20260503213544 73 263 10.0 17.0 0.00 0.00 0.00 29 1001.8
20260503213106 72 279 7.0 16.0 0.00 0.00 0.00 30 1001.9
20260503212542 72 294 7.0 15.0 0.00 0.00 0.00 30 1002.0
20260503212040 72 209 5.0 16.0 0.00 0.00 0.00 31 1002.1
20260503211602 71 285 8.0 23.0 0.00 0.00 0.00 31 1002.3
20260503211042 71 283 9.0 23.0 0.00 0.00 0.00 31 1002.5
20260503210538 72 267 5.0 17.0 0.00 0.00 0.00 31 1002.5
20260503210038 72 246 10.0 17.0 0.00 0.00 0.00 30 1002.6
20260503205538 72 246 9.0 17.0 0.00 0.00 0.00 31 1002.7
20260503205039 71 243 6.0 17.0 0.00 0.00 0.00 33 1002.7
20260503204552 71 252 7.0 17.0 0.00 0.00 0.00 32 1002.8
20260503204037 71 279 7.0 19.0 0.00 0.00 0.00 33 1002.8
20260503203533 71 196 5.0 19.0 0.00 0.00 0.00 32 1002.9
20260503203035 70 267 9.0 16.0 0.00 0.00 0.00 32 1003.0
20260503202531 71 284 5.0 15.0 0.00 0.00 0.00 33 1003.1
20260503202030 71 281 5.0 16.0 0.00 0.00 0.00 32 1003.3
20260503201531 71 293 8.0 16.0 0.00 0.00 0.00 32 1003.5
20260503201028 71 55 3.0 11.0 0.00 0.00 0.00 33 1003.5
20260503200527 71 286 6.0 12.0 0.00 0.00 0.00 33 1003.8
20260503200128 71 265 4.0 12.0 0.00 0.00 0.00 33 1003.9
20260503195525 70 284 4.0 15.0 0.00 0.00 0.00 33 1004.2
20260503195024 70 285 4.0 18.0 0.00 0.00 0.00 34 1004.4
20260503194525 70 278 5.0 14.0 0.00 0.00 0.00 35 1004.6
20260503194023 70 280 6.0 15.0 0.00 0.00 0.00 33 1004.6
20260503193523 69 216 6.0 15.0 0.00 0.00 0.00 34 1004.8
20260503193020 70 298 5.0 14.0 0.00 0.00 0.00 33 1004.8
20260503192521 70 284 5.0 15.0 0.00 0.00 0.00 33 1004.8
20260503192020 69 217 7.0 15.0 0.00 0.00 0.00 33 1004.8
20260503191519 69 291 7.0 14.0 0.00 0.00 0.00 33 1005.1
20260503191021 69 269 6.0 17.0 0.00 0.00 0.00 34 1005.1
20260503190517 69 302 6.0 17.0 0.00 0.00 0.00 33 1005.3
20260503190016 69 182 5.0 17.0 0.00 0.00 0.00 33 1005.4
20260503185520 69 226 6.0 18.0 0.00 0.00 0.00 34 1005.5
20260503185014 68 264 7.0 18.0 0.00 0.00 0.00 34 1005.5
20260503184513 68 336 5.0 16.0 0.00 0.00 0.00 34 1005.6
20260503184015 67 263 4.0 15.0 0.00 0.00 0.00 33 1005.9
20260503183512 67 296 6.0 15.0 0.00 0.00 0.00 34 1006.0
20260503183012 67 263 8.0 15.0 0.00 0.00 0.00 33 1006.2
20260503182514 67 278 8.0 15.0 0.00 0.00 0.00 33 1006.2
20260503182010 67 331 5.0 15.0 0.00 0.00 0.00 35 1006.4
20260503181509 67 300 5.0 15.0 0.00 0.00 0.00 34 1006.5
20260503181008 66 286 4.0 14.0 0.00 0.00 0.00 35 1006.6
20260503180507 66 257 8.0 14.0 0.00 0.00 0.00 34 1006.8
20260503180016 65 301 6.0 15.0 0.00 0.00 0.00 34 1006.8
20260503175505 65 266 8.0 15.0 0.00 0.00 0.00 35 1006.9
20260503175004 65 228 5.0 14.0 0.00 0.00 0.00 37 1007.0
20260503174512 65 275 8.0 14.0 0.00 0.00 0.00 36 1007.2
20260503174004 64 271 4.0 12.0 0.00 0.00 0.00 37 1007.2
20260503173501 64 269 5.0 12.0 0.00 0.00 0.00 37 1007.2
20260503173131 64 251 7.0 12.0 0.00 0.00 0.00 39 1007.5
20260503172559 64 265 4.0 12.0 0.00 0.00 0.00 39 1007.4
20260503172102 64 262 5.0 11.0 0.00 0.00 0.00 39 1007.4
20260503171557 64 317 6.0 11.0 0.00 0.00 0.00 39 1007.5
20260503171056 63 296 5.0 10.0 0.00 0.00 0.00 39 1007.7
20260503170554 62 270 1.0 7.0 0.00 0.00 0.00 40 1007.8
20260503150530 55 318 5.0 9.0 0.00 0.00 0.00 52 1009.2
20260503131002 45 325 3.0 8.0 0.00 0.00 0.00 64 1009.3
20260503130504 45 302 3.0 8.0 0.00 0.00 0.00 65 1009.4
20260503110545 43 341 6.0 12.0 0.00 0.00 0.00 66 1008.2
20260503081517 47 306 7.0 12.0 0.00 0.00 0.00 71 1007.4
20260503081016 48 340 8.0 14.0 0.00 0.00 0.00 71 1007.2
20260503080513 48 345 6.0 14.0 0.00 0.00 0.00 70 1007.2
20260503072506 49 317 7.0 15.0 0.00 0.00 0.00 69 1007.1
20260503072004 49 348 8.0 15.0 0.00 0.00 0.00 68 1007.1
20260503071506 50 331 8.0 15.0 0.00 0.00 0.00 68 1007.1
20260503071002 50 323 9.0 17.0 0.00 0.00 0.00 67 1007.1
20260503070500 51 296 10.0 17.0 0.00 0.00 0.00 67 1006.9
20260503070115 51 348 8.0 15.0 0.00 0.00 0.00 66 1006.9
20260503060103 51 334 7.0 16.0 0.00 0.00 0.00 66 1006.5
20260503055049 52 310 8.0 15.0 0.00 0.00 0.00 64 1006.5
20260503054556 53 316 8.0 15.0 0.00 0.00 0.00 63 1006.3
20260503054046 53 324 8.0 17.0 0.00 0.00 0.00 61 1006.3
20260503053545 54 336 9.0 17.0 0.00 0.00 0.00 60 1006.2
20260503053043 55 350 9.0 15.0 0.00 0.00 0.00 59 1006.1
20260503052542 55 317 9.0 15.0 0.00 0.00 0.00 59 1005.9
20260503052040 55 18 7.0 14.0 0.00 0.00 0.00 59 1005.8
20260503051547 55 360 8.0 19.0 0.00 0.00 0.00 59 1005.8
20260503051041 55 10 6.0 19.0 0.00 0.00 0.00 59 1005.7
20260503050538 55 323 9.0 16.0 0.00 0.00 0.00 59 1005.7
20260503050037 55 17 8.0 20.0 0.00 0.00 0.00 59 1005.6
20260503045537 55 349 7.0 20.0 0.00 0.00 0.00 58 1005.5
20260503045036 56 24 8.0 16.0 0.00 0.00 0.00 58 1005.5
20260503044536 56 40 9.0 22.0 0.00 0.00 0.00 57 1005.5
20260503044036 56 360 10.0 22.0 0.00 0.00 0.00 57 1005.4
20260503043536 56 341 9.0 21.0 0.00 0.00 0.00 57 1005.4
20260503043036 56 34 10.0 18.0 0.00 0.00 0.00 57 1005.3
20260503042536 56 336 7.0 17.0 0.00 0.00 0.00 57 1005.4
20260503042036 56 311 9.0 25.0 0.00 0.00 0.00 57 1005.4
20260503041536 56 355 9.0 25.0 0.00 0.00 0.00 57 1005.3
20260503041038 57 325 12.0 23.0 0.00 0.00 0.00 57 1005.2
20260503040535 57 339 10.0 23.0 0.00 0.00 0.00 56 1005.1
20260503040035 57 318 9.0 16.0 0.00 0.00 0.00 56 1005.1